Time,TemperatureF,DewpointF,PressureIn,WindDirection,WindDirectionDegrees,WindSpeedMPH,WindSpeedGustMPH,Humidity,HourlyPrecipIn,Conditions,Clouds,dailyrainin,SoftwareType,DateUTC
2013-07-07 00:03:00,68.1,66.0,29.97,South,185,2.0,2.0,93,0.00,,,0.00,Wunderground v.1.15,2013-07-07 05:03:00,
2013-07-07 00:09:00,68.5,66.1,29.97,South,187,0.0,2.0,92,0.00,,,0.00,Wunderground v.1.15,2013-07-07 05:09:00,
2013-07-07 00:14:00,68.5,66.1,29.97,South,187,1.0,2.0,92,0.00,,,0.00,Wunderground v.1.15,2013-07-07 05:14:00,
2013-07-07 00:19:00,68.6,65.9,29.98,South,187,0.0,2.0,91,0.00,,,0.00,Wunderground v.1.15,2013-07-07 05:19:00,
2013-07-07 00:24:00,68.6,65.9,29.98,South,187,1.0,2.0,91,0.00,,,0.00,Wunderground v.1.15,2013-07-07 05:24:00,
2013-07-07 00:30:00,68.6,65.9,29.98,South,187,0.0,1.0,91,0.00,,,0.00,Wunderground v.1.15,2013-07-07 05:30:00,
2013-07-07 00:35:00,68.6,65.9,29.98,South,187,1.0,1.0,91,0.00,,,0.00,Wunderground v.1.15,2013-07-07 05:35:00,
2013-07-07 00:40:00,68.5,65.4,29.98,South,187,0.0,0.0,90,0.00,,,0.00,Wunderground v.1.15,2013-07-07 05:40:00,
2013-07-07 00:45:00,68.5,65.8,29.97,South,187,1.0,2.0,91,0.00,,,0.00,Wunderground v.1.15,2013-07-07 05:45:00,
2013-07-07 00:50:00,68.5,65.8,29.97,South,187,1.0,1.0,91,0.00,,,0.00,Wunderground v.1.15,2013-07-07 05:50:00,
2013-07-07 00:55:00,68.4,65.7,29.97,South,187,1.0,1.0,91,0.00,,,0.00,Wunderground v.1.15,2013-07-07 05:55:00,
2013-07-07 01:00:00,68.4,65.7,29.97,South,187,1.0,1.0,91,0.00,,,0.00,Wunderground v.1.15,2013-07-07 06:00:00,
2013-07-07 01:06:00,68.2,65.2,29.97,South,187,1.0,2.0,90,0.00,,,0.00,Wunderground v.1.15,2013-07-07 06:06:00,
2013-07-07 01:11:00,67.9,65.2,29.97,South,187,2.0,2.0,91,0.00,,,0.00,Wunderground v.1.15,2013-07-07 06:11:00,
2013-07-07 01:16:00,67.8,65.4,29.97,South,188,2.0,2.0,92,0.00,,,0.00,Wunderground v.1.15,2013-07-07 06:16:00,
2013-07-07 01:21:00,67.9,65.5,29.97,South,190,2.0,2.0,92,0.00,,,0.00,Wunderground v.1.15,2013-07-07 06:21:00,
2013-07-07 01:28:00,68.1,65.7,29.96,South,190,1.0,3.0,92,0.00,,,0.00,Wunderground v.1.15,2013-07-07 06:28:00,
2013-07-07 01:34:00,68.2,65.8,29.96,South,191,1.0,2.0,92,0.00,,,0.00,Wunderground v.1.15,2013-07-07 06:34:00,
2013-07-07 01:39:00,68.3,65.9,29.96,South,189,0.0,3.0,92,0.00,,,0.00,Wunderground v.1.15,2013-07-07 06:39:00,
2013-07-07 01:44:00,68.3,65.9,29.96,South,189,1.0,3.0,92,0.00,,,0.00,Wunderground v.1.15,2013-07-07 06:44:00,
2013-07-07 01:50:00,68.3,65.9,29.96,South,189,2.0,2.0,92,0.00,,,0.00,Wunderground v.1.15,2013-07-07 06:50:00,
2013-07-07 01:56:00,68.4,66.3,29.96,SSW,192,1.0,4.0,93,0.00,,,0.00,Wunderground v.1.15,2013-07-07 06:56:00,
2013-07-07 02:01:00,68.4,66.3,29.96,SSW,192,1.0,2.0,93,0.00,,,0.00,Wunderground v.1.15,2013-07-07 07:01:00,
2013-07-07 02:06:00,68.3,66.2,29.96,SSW,192,2.0,3.0,93,0.00,,,0.00,Wunderground v.1.15,2013-07-07 07:06:00,
2013-07-07 02:11:00,68.2,66.1,29.95,SSW,192,0.0,2.0,93,0.00,,,0.00,Wunderground v.1.15,2013-07-07 07:11:00,
2013-07-07 02:16:00,68.1,66.0,29.95,SSW,192,2.0,3.0,93,0.00,,,0.00,Wunderground v.1.15,2013-07-07 07:16:00,
2013-07-07 02:21:00,68.1,66.0,29.95,SSW,192,1.0,2.0,93,0.00,,,0.00,Wunderground v.1.15,2013-07-07 07:21:00,
2013-07-07 02:26:00,68.0,65.9,29.95,SSW,192,1.0,3.0,93,0.00,,,0.00,Wunderground v.1.15,2013-07-07 07:26:00,
2013-07-07 02:31:00,67.9,65.8,29.95,SSW,194,1.0,3.0,93,0.00,,,0.00,Wunderground v.1.15,2013-07-07 07:31:00,
2013-07-07 02:36:00,67.8,65.7,29.95,SSW,194,1.0,4.0,93,0.00,,,0.00,Wunderground v.1.15,2013-07-07 07:36:00,
2013-07-07 02:41:00,67.8,65.7,29.95,SSW,194,0.0,3.0,93,0.00,,,0.00,Wunderground v.1.15,2013-07-07 07:41:00,
2013-07-07 02:47:00,67.7,65.9,29.95,SSW,194,0.0,3.0,94,0.00,,,0.00,Wunderground v.1.15,2013-07-07 07:47:00,
2013-07-07 02:52:00,67.6,65.5,29.95,SSW,194,0.0,0.0,93,0.00,,,0.00,Wunderground v.1.15,2013-07-07 07:52:00,
2013-07-07 02:57:00,67.5,65.4,29.94,SSW,194,0.0,1.0,93,0.00,,,0.00,Wunderground v.1.15,2013-07-07 07:57:00,
2013-07-07 03:02:00,67.3,65.2,29.95,SSW,194,0.0,0.0,93,0.00,,,0.00,Wunderground v.1.15,2013-07-07 08:02:00,
2013-07-07 03:08:00,67.2,65.1,29.94,SSW,194,0.0,1.0,93,0.00,,,0.00,Wunderground v.1.15,2013-07-07 08:08:00,
2013-07-07 03:13:00,67.0,64.9,29.94,SSW,194,0.0,0.0,93,0.00,,,0.00,Wunderground v.1.15,2013-07-07 08:13:00,
2013-07-07 03:18:00,66.7,64.6,29.95,SSW,194,0.0,0.0,93,0.00,,,0.00,Wunderground v.1.15,2013-07-07 08:18:00,
2013-07-07 03:24:00,66.2,64.1,29.95,SSW,194,0.0,1.0,93,0.00,,,0.00,Wunderground v.1.15,2013-07-07 08:24:00,
2013-07-07 03:29:00,65.8,63.7,29.95,SSW,194,1.0,2.0,93,0.00,,,0.00,Wunderground v.1.15,2013-07-07 08:29:00,
2013-07-07 03:35:00,65.8,64.0,29.95,SSW,194,0.0,3.0,94,0.00,,,0.00,Wunderground v.1.15,2013-07-07 08:35:00,
2013-07-07 03:41:00,66.1,64.6,29.96,SSW,194,0.0,1.0,95,0.00,,,0.00,Wunderground v.1.15,2013-07-07 08:41:00,
2013-07-07 03:46:00,66.2,64.7,29.96,SSW,194,0.0,1.0,95,0.00,,,0.00,Wunderground v.1.15,2013-07-07 08:46:00,
2013-07-07 03:51:00,66.2,64.7,29.95,SSW,194,1.0,2.0,95,0.00,,,0.00,Wunderground v.1.15,2013-07-07 08:51:00,
2013-07-07 03:56:00,66.3,64.8,29.95,SSW,194,0.0,2.0,95,0.00,,,0.00,Wunderground v.1.15,2013-07-07 08:56:00,
2013-07-07 04:01:00,66.2,64.7,29.95,SSW,194,0.0,0.0,95,0.00,,,0.00,Wunderground v.1.15,2013-07-07 09:01:00,
2013-07-07 04:06:00,66.1,64.6,29.95,SSW,194,0.0,0.0,95,0.00,,,0.00,Wunderground v.1.15,2013-07-07 09:06:00,
2013-07-07 04:11:00,65.9,64.4,29.95,SSW,194,0.0,0.0,95,0.00,,,0.00,Wunderground v.1.15,2013-07-07 09:11:00,
2013-07-07 04:16:00,65.8,64.3,29.95,SSW,194,0.0,1.0,95,0.00,,,0.00,Wunderground v.1.15,2013-07-07 09:16:00,
2013-07-07 04:21:00,65.7,64.2,29.95,SSW,194,0.0,0.0,95,0.00,,,0.00,Wunderground v.1.15,2013-07-07 09:21:00,
2013-07-07 04:26:00,65.7,64.2,29.95,SSW,194,1.0,1.0,95,0.00,,,0.00,Wunderground v.1.15,2013-07-07 09:26:00,
2013-07-07 04:31:00,65.7,64.5,29.96,SSW,194,0.0,0.0,96,0.00,,,0.00,Wunderground v.1.15,2013-07-07 09:31:00,
2013-07-07 04:36:00,65.6,64.1,29.96,SSW,194,0.0,0.0,95,0.00,,,0.00,Wunderground v.1.15,2013-07-07 09:36:00,
2013-07-07 04:42:00,65.5,64.0,29.95,SSW,194,0.0,1.0,95,0.00,,,0.00,Wunderground v.1.15,2013-07-07 09:42:00,
2013-07-07 04:47:00,65.5,64.0,29.95,SSW,194,0.0,1.0,95,0.00,,,0.00,Wunderground v.1.15,2013-07-07 09:47:00,
2013-07-07 04:52:00,65.6,64.4,29.95,SSW,194,1.0,1.0,96,0.00,,,0.00,Wunderground v.1.15,2013-07-07 09:52:00,
2013-07-07 04:57:00,65.6,64.4,29.96,SSW,194,0.0,1.0,96,0.00,,,0.00,Wunderground v.1.15,2013-07-07 09:57:00,
2013-07-07 05:02:00,65.7,64.5,29.96,SSW,194,0.0,1.0,96,0.00,,,0.00,Wunderground v.1.15,2013-07-07 10:02:00,
2013-07-07 05:07:00,65.7,64.5,29.96,SSW,194,0.0,2.0,96,0.00,,,0.00,Wunderground v.1.15,2013-07-07 10:07:00,
2013-07-07 05:12:00,65.6,64.4,29.96,SSW,194,0.0,1.0,96,0.00,,,0.00,Wunderground v.1.15,2013-07-07 10:12:00,
2013-07-07 05:17:00,65.7,64.5,29.95,SSW,194,0.0,2.0,96,0.00,,,0.00,Wunderground v.1.15,2013-07-07 10:17:00,
2013-07-07 05:22:00,65.6,64.4,29.95,SSW,194,0.0,1.0,96,0.00,,,0.00,Wunderground v.1.15,2013-07-07 10:22:00,
2013-07-07 05:27:00,65.7,64.5,29.95,SSW,194,0.0,1.0,96,0.00,,,0.00,Wunderground v.1.15,2013-07-07 10:27:00,
2013-07-07 05:33:00,65.5,64.3,29.95,SSW,194,0.0,0.0,96,0.00,,,0.00,Wunderground v.1.15,2013-07-07 10:33:00,
2013-07-07 05:38:00,65.4,64.2,29.96,SSW,194,0.0,0.0,96,0.00,,,0.00,Wunderground v.1.15,2013-07-07 10:38:00,
2013-07-07 05:43:00,65.3,64.1,29.96,SSW,194,0.0,0.0,96,0.00,,,0.00,Wunderground v.1.15,2013-07-07 10:43:00,
2013-07-07 05:48:00,65.1,63.9,29.96,SSW,194,0.0,1.0,96,0.00,,,0.00,Wunderground v.1.15,2013-07-07 10:48:00,
2013-07-07 05:53:00,64.9,63.7,29.96,SSW,194,0.0,1.0,96,0.00,,,0.00,Wunderground v.1.15,2013-07-07 10:53:00,
2013-07-07 05:58:00,65.1,63.9,29.96,SSW,194,0.0,1.0,96,0.00,,,0.00,Wunderground v.1.15,2013-07-07 10:58:00,
2013-07-07 06:03:00,65.2,64.3,29.96,SSW,194,1.0,2.0,97,0.00,,,0.00,Wunderground v.1.15,2013-07-07 11:03:00,
2013-07-07 06:09:00,65.3,64.4,29.96,SSW,194,2.0,2.0,97,0.00,,,0.00,Wunderground v.1.15,2013-07-07 11:09:00,
2013-07-07 06:14:00,65.6,64.7,29.96,SSW,194,0.0,1.0,97,0.00,,,0.00,Wunderground v.1.15,2013-07-07 11:14:00,
2013-07-07 06:19:00,65.8,64.9,29.96,SSW,194,0.0,1.0,97,0.00,,,0.00,Wunderground v.1.15,2013-07-07 11:19:00,
2013-07-07 06:24:00,65.9,65.0,29.96,SSW,194,0.0,2.0,97,0.00,,,0.00,Wunderground v.1.15,2013-07-07 11:24:00,
2013-07-07 06:30:00,66.2,65.3,29.96,SSW,194,0.0,0.0,97,0.00,,,0.00,Wunderground v.1.15,2013-07-07 11:30:00,
2013-07-07 06:35:00,66.4,65.5,29.96,SSW,194,0.0,1.0,97,0.00,,,0.00,Wunderground v.1.15,2013-07-07 11:35:00,
2013-07-07 06:41:00,66.5,65.6,29.96,SSW,194,0.0,0.0,97,0.00,,,0.00,Wunderground v.1.15,2013-07-07 11:41:00,
2013-07-07 06:46:00,66.6,65.7,29.96,SSW,194,0.0,1.0,97,0.00,,,0.00,Wunderground v.1.15,2013-07-07 11:46:00,
2013-07-07 06:51:00,66.7,65.8,29.96,SSW,194,0.0,1.0,97,0.00,,,0.00,Wunderground v.1.15,2013-07-07 11:51:00,
2013-07-07 06:56:00,66.8,65.9,29.96,SSW,194,1.0,1.0,97,0.00,,,0.00,Wunderground v.1.15,2013-07-07 11:56:00,
2013-07-07 07:01:00,67.0,66.1,29.96,SSW,194,0.0,0.0,97,0.00,,,0.00,Wunderground v.1.15,2013-07-07 12:01:00,
2013-07-07 07:07:00,67.4,66.5,29.96,SSW,194,0.0,1.0,97,0.00,,,0.00,Wunderground v.1.15,2013-07-07 12:07:00,
2013-07-07 07:12:00,67.5,66.6,29.96,SSW,194,0.0,1.0,97,0.00,,,0.00,Wunderground v.1.15,2013-07-07 12:12:00,
2013-07-07 07:17:00,67.6,66.7,29.96,SSW,194,1.0,1.0,97,0.00,,,0.00,Wunderground v.1.15,2013-07-07 12:17:00,
2013-07-07 07:22:00,67.7,66.8,29.96,SSW,194,1.0,2.0,97,0.00,,,0.00,Wunderground v.1.15,2013-07-07 12:22:00,
2013-07-07 07:27:00,67.9,67.0,29.96,SSW,194,0.0,3.0,97,0.00,,,0.00,Wunderground v.1.15,2013-07-07 12:27:00,
2013-07-07 07:32:00,68.1,67.2,29.96,SSW,194,0.0,1.0,97,0.00,,,0.00,Wunderground v.1.15,2013-07-07 12:32:00,
2013-07-07 07:37:00,68.3,67.4,29.96,SSW,194,0.0,1.0,97,0.00,,,0.00,Wunderground v.1.15,2013-07-07 12:37:00,
2013-07-07 07:43:00,68.4,67.5,29.96,SSW,194,0.0,2.0,97,0.00,,,0.00,Wunderground v.1.15,2013-07-07 12:43:00,
2013-07-07 07:48:00,68.3,67.4,29.96,SSW,194,0.0,2.0,97,0.00,,,0.00,Wunderground v.1.15,2013-07-07 12:48:00,
2013-07-07 07:53:00,68.4,67.5,29.96,SSW,195,1.0,3.0,97,0.00,,,0.00,Wunderground v.1.15,2013-07-07 12:53:00,
2013-07-07 07:58:00,68.5,67.6,29.96,SSW,196,1.0,3.0,97,0.00,,,0.00,Wunderground v.1.15,2013-07-07 12:58:00,
2013-07-07 08:03:00,68.7,67.8,29.96,SSW,204,1.0,4.0,97,0.00,,,0.00,Wunderground v.1.15,2013-07-07 13:03:00,
2013-07-07 08:09:00,69.0,68.1,29.96,SSW,210,1.0,4.0,97,0.00,,,0.00,Wunderground v.1.15,2013-07-07 13:09:00,
2013-07-07 08:14:00,69.3,68.4,29.96,SW,215,3.0,4.0,97,0.00,,,0.00,Wunderground v.1.15,2013-07-07 13:14:00,
2013-07-07 08:19:00,69.6,68.7,29.97,SSW,209,2.0,4.0,97,0.00,,,0.00,Wunderground v.1.15,2013-07-07 13:19:00,
2013-07-07 08:24:00,69.8,68.9,29.96,SW,223,2.0,4.0,97,0.00,,,0.00,Wunderground v.1.15,2013-07-07 13:24:00,
2013-07-07 08:29:00,70.4,69.5,29.96,South,184,2.0,4.0,97,0.00,,,0.00,Wunderground v.1.15,2013-07-07 13:29:00,
2013-07-07 08:34:00,70.6,69.7,29.96,SSW,202,4.0,4.0,97,0.00,,,0.00,Wunderground v.1.15,2013-07-07 13:34:00,
2013-07-07 08:40:00,70.8,69.6,29.97,SSW,212,2.0,2.0,96,0.00,,,0.00,Wunderground v.1.15,2013-07-07 13:40:00,
2013-07-07 08:45:00,71.1,69.9,29.96,SW,219,2.0,5.0,96,0.00,,,0.00,Wunderground v.1.15,2013-07-07 13:45:00,
2013-07-07 08:50:00,71.5,70.3,29.96,SSW,207,1.0,2.0,96,0.00,,,0.00,Wunderground v.1.15,2013-07-07 13:50:00,
2013-07-07 08:56:00,72.0,70.5,29.96,SW,224,3.0,4.0,95,0.00,,,0.00,Wunderground v.1.15,2013-07-07 13:56:00,
2013-07-07 09:01:00,72.6,71.1,29.96,SW,217,3.0,4.0,95,0.00,,,0.00,Wunderground v.1.15,2013-07-07 14:01:00,
2013-07-07 09:06:00,73.1,71.3,29.96,SW,227,3.0,5.0,94,0.00,,,0.00,Wunderground v.1.15,2013-07-07 14:06:00,
2013-07-07 09:11:00,73.6,71.4,29.96,SW,224,2.0,4.0,93,0.00,,,0.00,Wunderground v.1.15,2013-07-07 14:11:00,
2013-07-07 09:16:00,74.3,71.8,29.96,SW,216,2.0,5.0,92,0.00,,,0.00,Wunderground v.1.15,2013-07-07 14:16:00,
2013-07-07 09:21:00,74.9,72.1,29.96,WSW,239,2.0,3.0,91,0.00,,,0.00,Wunderground v.1.15,2013-07-07 14:21:00,
2013-07-07 09:27:00,75.6,72.1,29.95,SSW,213,2.0,5.0,89,0.00,,,0.00,Wunderground v.1.15,2013-07-07 14:27:00,
2013-07-07 09:33:00,76.4,72.6,29.96,SW,223,0.0,4.0,88,0.00,,,0.00,Wunderground v.1.15,2013-07-07 14:33:00,
2013-07-07 09:38:00,77.1,72.9,29.95,WSW,238,2.0,6.0,87,0.00,,,0.00,Wunderground v.1.15,2013-07-07 14:38:00,
2013-07-07 09:43:00,77.6,72.4,29.95,SW,232,1.0,5.0,84,0.00,,,0.00,Wunderground v.1.15,2013-07-07 14:43:00,
2013-07-07 09:48:00,77.9,72.0,29.95,SSW,194,3.0,6.0,82,0.00,,,0.00,Wunderground v.1.15,2013-07-07 14:48:00,
2013-07-07 09:53:00,78.0,72.1,29.95,NNE,21,1.0,3.0,82,0.00,,,0.00,Wunderground v.1.15,2013-07-07 14:53:00,
2013-07-07 09:58:00,77.7,70.7,29.95,SW,220,3.0,10.0,79,0.00,,,0.00,Wunderground v.1.15,2013-07-07 14:58:00,
2013-07-07 10:03:00,77.6,71.3,29.95,WSW,250,4.0,10.0,81,0.00,,,0.00,Wunderground v.1.15,2013-07-07 15:03:00,
2013-07-07 10:08:00,78.1,71.8,29.95,SW,221,3.0,10.0,81,0.00,,,0.00,Wunderground v.1.15,2013-07-07 15:08:00,
2013-07-07 10:13:00,78.6,71.5,29.95,SW,235,4.0,9.0,79,0.00,,,0.00,Wunderground v.1.15,2013-07-07 15:13:00,
2013-07-07 10:18:00,78.9,72.2,29.95,South,186,4.0,9.0,80,0.00,,,0.00,Wunderground v.1.15,2013-07-07 15:18:00,
2013-07-07 10:24:00,79.3,72.6,29.95,North,5,0.0,7.0,80,0.00,,,0.00,Wunderground v.1.15,2013-07-07 15:24:00,
2013-07-07 10:29:00,79.8,72.3,29.95,SW,227,3.0,7.0,78,0.00,,,0.00,Wunderground v.1.15,2013-07-07 15:29:00,
2013-07-07 10:35:00,80.1,72.2,29.95,SSW,213,2.0,9.0,77,0.00,,,0.00,Wunderground v.1.15,2013-07-07 15:35:00,
2013-07-07 10:40:00,80.1,73.0,29.95,WSW,252,0.0,4.0,79,0.00,,,0.00,Wunderground v.1.15,2013-07-07 15:40:00,
2013-07-07 10:45:00,80.4,72.9,29.95,NW,317,1.0,5.0,78,0.00,,,0.00,Wunderground v.1.15,2013-07-07 15:45:00,
2013-07-07 10:50:00,80.9,73.0,29.95,West,259,1.0,6.0,77,0.00,,,0.00,Wunderground v.1.15,2013-07-07 15:50:00,
2013-07-07 10:56:00,81.1,73.2,29.95,SW,225,3.0,6.0,77,0.00,,,0.00,Wunderground v.1.15,2013-07-07 15:56:00,
2013-07-07 11:01:00,81.2,74.1,29.95,WSW,255,2.0,3.0,79,0.00,,,0.00,Wunderground v.1.15,2013-07-07 16:01:00,
2013-07-07 11:06:00,81.7,73.8,29.95,WSW,238,4.0,6.0,77,0.00,,,0.00,Wunderground v.1.15,2013-07-07 16:06:00,
2013-07-07 11:11:00,81.8,73.1,29.95,SW,234,3.0,3.0,75,0.00,,,0.00,Wunderground v.1.15,2013-07-07 16:11:00,
2013-07-07 11:17:00,81.6,73.3,29.95,SSW,207,2.0,5.0,76,0.00,,,0.00,Wunderground v.1.15,2013-07-07 16:17:00,
2013-07-07 11:23:00,81.9,74.4,29.95,NW,305,1.0,7.0,78,0.00,,,0.00,Wunderground v.1.15,2013-07-07 16:23:00,
2013-07-07 11:28:00,82.4,74.1,29.95,SSW,210,5.0,7.0,76,0.00,,,0.00,Wunderground v.1.15,2013-07-07 16:28:00,
2013-07-07 11:33:00,82.7,74.4,29.95,WSW,239,0.0,4.0,76,0.00,,,0.00,Wunderground v.1.15,2013-07-07 16:33:00,
2013-07-07 11:38:00,83.3,73.7,29.94,SW,229,4.0,5.0,73,0.00,,,0.00,Wunderground v.1.15,2013-07-07 16:38:00,
2013-07-07 11:43:00,83.6,74.0,29.95,West,267,1.0,7.0,73,0.00,,,0.00,Wunderground v.1.15,2013-07-07 16:43:00,
2013-07-07 11:48:00,83.6,72.8,29.94,West,265,1.0,7.0,70,0.00,,,0.00,Wunderground v.1.15,2013-07-07 16:48:00,
2013-07-07 11:54:00,83.9,73.5,29.94,SW,216,4.0,10.0,71,0.00,,,0.00,Wunderground v.1.15,2013-07-07 16:54:00,
2013-07-07 11:59:00,83.8,72.5,29.94,SW,232,4.0,10.0,69,0.00,,,0.00,Wunderground v.1.15,2013-07-07 16:59:00,
2013-07-07 12:04:00,84.0,73.6,29.94,SW,225,4.0,6.0,71,0.00,,,0.00,Wunderground v.1.15,2013-07-07 17:04:00,
2013-07-07 12:09:00,84.3,73.4,29.95,WSW,239,5.0,7.0,70,0.00,,,0.00,Wunderground v.1.15,2013-07-07 17:09:00,
2013-07-07 12:14:00,84.5,74.5,29.94,SW,223,2.0,7.0,72,0.00,,,0.00,Wunderground v.1.15,2013-07-07 17:14:00,
2013-07-07 12:19:00,84.4,72.2,29.94,SSW,209,4.0,9.0,67,0.00,,,0.00,Wunderground v.1.15,2013-07-07 17:19:00,
2013-07-07 12:24:00,84.5,74.1,29.94,NW,318,2.0,6.0,71,0.00,,,0.00,Wunderground v.1.15,2013-07-07 17:24:00,
2013-07-07 12:30:00,85.0,74.1,29.94,SW,236,2.0,2.0,70,0.00,,,0.00,Wunderground v.1.15,2013-07-07 17:30:00,
2013-07-07 12:35:00,85.4,74.1,29.94,SW,223,3.0,6.0,69,0.00,,,0.00,Wunderground v.1.15,2013-07-07 17:35:00,
2013-07-07 12:40:00,85.6,72.9,29.94,SW,225,5.0,5.0,66,0.00,,,0.00,Wunderground v.1.15,2013-07-07 17:40:00,
2013-07-07 12:45:00,85.4,73.2,29.94,SW,235,4.0,5.0,67,0.00,,,0.00,Wunderground v.1.15,2013-07-07 17:45:00,
2013-07-07 12:50:00,85.1,72.5,29.94,SW,221,0.0,4.0,66,0.00,,,0.00,Wunderground v.1.15,2013-07-07 17:50:00,
2013-07-07 12:56:00,85.2,72.6,29.94,WNW,295,5.0,7.0,66,0.00,,,0.00,Wunderground v.1.15,2013-07-07 17:56:00,
2013-07-07 13:01:00,85.6,74.3,29.94,NW,312,2.0,2.0,69,0.00,,,0.00,Wunderground v.1.15,2013-07-07 18:01:00,
2013-07-07 13:06:00,86.2,72.1,29.93,WNW,302,1.0,5.0,63,0.00,,,0.00,Wunderground v.1.15,2013-07-07 18:06:00,
2013-07-07 13:11:00,86.1,73.9,29.93,West,261,3.0,3.0,67,0.00,,,0.00,Wunderground v.1.15,2013-07-07 18:11:00,
2013-07-07 13:16:00,86.4,73.7,29.93,SW,230,3.0,5.0,66,0.00,,,0.00,Wunderground v.1.15,2013-07-07 18:16:00,
2013-07-07 13:22:00,86.0,72.4,29.94,SW,217,2.0,4.0,64,0.00,,,0.00,Wunderground v.1.15,2013-07-07 18:22:00,
2013-07-07 13:27:00,85.8,72.7,29.93,WSW,240,4.0,9.0,65,0.00,,,0.00,Wunderground v.1.15,2013-07-07 18:27:00,
2013-07-07 13:32:00,85.9,71.8,29.93,SW,229,0.0,4.0,63,0.00,,,0.00,Wunderground v.1.15,2013-07-07 18:32:00,
2013-07-07 13:37:00,85.6,72.0,29.93,SW,216,3.0,7.0,64,0.00,,,0.00,Wunderground v.1.15,2013-07-07 18:37:00,
2013-07-07 13:42:00,85.1,72.5,29.93,SW,234,1.0,3.0,66,0.00,,,0.00,Wunderground v.1.15,2013-07-07 18:42:00,
2013-07-07 13:47:00,84.9,72.3,29.93,NNW,337,0.0,4.0,66,0.00,,,0.00,Wunderground v.1.15,2013-07-07 18:47:00,
2013-07-07 13:52:00,84.7,72.1,29.93,SW,226,2.0,4.0,66,0.00,,,0.00,Wunderground v.1.15,2013-07-07 18:52:00,
2013-07-07 13:57:00,84.5,72.3,29.93,WSW,239,0.0,4.0,67,0.00,,,0.00,Wunderground v.1.15,2013-07-07 18:57:00,
2013-07-07 14:02:00,84.3,73.0,29.93,SW,219,0.0,2.0,69,0.00,,,0.00,Wunderground v.1.15,2013-07-07 19:02:00,
2013-07-07 14:07:00,84.0,71.9,29.93,West,261,0.0,5.0,67,0.00,,,0.00,Wunderground v.1.15,2013-07-07 19:07:00,
2013-07-07 14:13:00,83.8,72.5,29.93,SW,231,2.0,3.0,69,0.00,,,0.00,Wunderground v.1.15,2013-07-07 19:13:00,
2013-07-07 14:18:00,83.4,71.7,29.92,SW,230,0.0,3.0,68,0.00,,,0.00,Wunderground v.1.15,2013-07-07 19:18:00,
2013-07-07 14:23:00,83.3,72.9,29.92,SW,230,0.0,1.0,71,0.00,,,0.00,Wunderground v.1.15,2013-07-07 19:23:00,
2013-07-07 14:28:00,83.1,72.3,29.92,SW,233,0.0,1.0,70,0.00,,,0.00,Wunderground v.1.15,2013-07-07 19:28:00,
2013-07-07 14:33:00,83.1,72.7,29.92,SW,233,0.0,3.0,71,0.00,,,0.00,Wunderground v.1.15,2013-07-07 19:33:00,
2013-07-07 14:38:00,83.1,72.3,29.92,SW,227,0.0,3.0,70,0.00,,,0.00,Wunderground v.1.15,2013-07-07 19:38:00,
2013-07-07 14:43:00,83.1,72.7,29.92,SW,227,1.0,3.0,71,0.00,,,0.00,Wunderground v.1.15,2013-07-07 19:43:00,
2013-07-07 14:48:00,83.0,73.0,29.92,SW,227,1.0,4.0,72,0.00,,,0.00,Wunderground v.1.15,2013-07-07 19:48:00,
2013-07-07 14:53:00,83.0,73.0,29.93,SW,229,0.0,2.0,72,0.00,,,0.00,Wunderground v.1.15,2013-07-07 19:53:00,
2013-07-07 14:59:00,83.1,72.7,29.93,SW,229,1.0,3.0,71,0.00,,,0.00,Wunderground v.1.15,2013-07-07 19:59:00,
2013-07-07 15:05:00,83.6,74.0,29.93,SW,229,3.0,3.0,73,0.00,,,0.00,Wunderground v.1.15,2013-07-07 20:05:00,
2013-07-07 15:10:00,83.9,73.5,29.92,SW,227,2.0,4.0,71,0.00,,,0.00,Wunderground v.1.15,2013-07-07 20:10:00,
2013-07-07 15:15:00,83.9,73.5,29.92,SW,225,1.0,6.0,71,0.00,,,0.00,Wunderground v.1.15,2013-07-07 20:15:00,
2013-07-07 15:20:00,83.7,74.1,29.92,SW,223,0.0,2.0,73,0.00,,,0.00,Wunderground v.1.15,2013-07-07 20:20:00,
2013-07-07 15:25:00,83.3,72.5,29.92,SW,227,3.0,5.0,70,0.00,,,0.00,Wunderground v.1.15,2013-07-07 20:25:00,
2013-07-07 15:30:00,83.0,72.2,29.92,SW,229,1.0,2.0,70,0.00,,,0.00,Wunderground v.1.15,2013-07-07 20:30:00,
2013-07-07 15:35:00,82.9,72.5,29.92,SW,232,1.0,4.0,71,0.00,,,0.00,Wunderground v.1.15,2013-07-07 20:35:00,
2013-07-07 15:40:00,83.1,73.5,29.92,SW,232,2.0,2.0,73,0.00,,,0.00,Wunderground v.1.15,2013-07-07 20:40:00,
2013-07-07 15:45:00,83.9,73.1,29.92,SW,226,4.0,5.0,70,0.00,,,0.00,Wunderground v.1.15,2013-07-07 20:45:00,
2013-07-07 15:50:00,84.1,72.8,29.92,SW,227,4.0,4.0,69,0.00,,,0.00,Wunderground v.1.15,2013-07-07 20:50:00,
2013-07-07 15:56:00,84.1,73.3,29.92,SW,229,2.0,6.0,70,0.00,,,0.00,Wunderground v.1.15,2013-07-07 20:56:00,
2013-07-07 16:01:00,84.4,73.1,29.91,SW,215,2.0,4.0,69,0.00,,,0.00,Wunderground v.1.15,2013-07-07 21:01:00,
2013-07-07 16:06:00,84.7,73.0,29.91,SW,236,3.0,6.0,68,0.00,,,0.00,Wunderground v.1.15,2013-07-07 21:06:00,
2013-07-07 16:11:00,84.7,72.5,29.91,SW,226,1.0,4.0,67,0.00,,,0.00,Wunderground v.1.15,2013-07-07 21:11:00,
2013-07-07 16:16:00,84.5,71.9,29.91,SSW,211,2.0,5.0,66,0.00,,,0.00,Wunderground v.1.15,2013-07-07 21:16:00,
2013-07-07 16:21:00,84.4,72.7,29.91,SW,221,3.0,5.0,68,0.00,,,0.00,Wunderground v.1.15,2013-07-07 21:21:00,
2013-07-07 16:26:00,84.2,72.0,29.91,SW,230,5.0,7.0,67,0.00,,,0.00,Wunderground v.1.15,2013-07-07 21:26:00,
2013-07-07 16:31:00,84.1,72.0,29.91,SW,223,3.0,6.0,67,0.00,,,0.00,Wunderground v.1.15,2013-07-07 21:31:00,
2013-07-07 16:36:00,84.0,72.3,29.91,WSW,240,5.0,6.0,68,0.00,,,0.00,Wunderground v.1.15,2013-07-07 21:36:00,
2013-07-07 16:41:00,84.0,71.9,29.91,West,272,4.0,5.0,67,0.00,,,0.00,Wunderground v.1.15,2013-07-07 21:41:00,
2013-07-07 16:46:00,83.8,70.8,29.91,SW,215,7.0,9.0,65,0.00,,,0.00,Wunderground v.1.15,2013-07-07 21:46:00,
2013-07-07 16:51:00,83.5,70.0,29.90,SW,236,5.0,6.0,64,0.00,,,0.00,Wunderground v.1.15,2013-07-07 21:51:00,
2013-07-07 16:56:00,83.2,70.7,29.90,SW,229,1.0,7.0,66,0.00,,,0.00,Wunderground v.1.15,2013-07-07 21:56:00,
2013-07-07 17:01:00,83.0,70.9,29.91,SW,227,0.0,4.0,67,0.00,,,0.00,Wunderground v.1.15,2013-07-07 22:01:00,
2013-07-07 17:06:00,82.8,71.2,29.91,SW,227,1.0,4.0,68,0.00,,,0.00,Wunderground v.1.15,2013-07-07 22:06:00,
2013-07-07 17:11:00,82.7,71.1,29.91,SW,230,0.0,3.0,68,0.00,,,0.00,Wunderground v.1.15,2013-07-07 22:11:00,
2013-07-07 17:16:00,82.5,70.9,29.91,SW,227,0.0,4.0,68,0.00,,,0.00,Wunderground v.1.15,2013-07-07 22:16:00,
2013-07-07 17:21:00,82.3,71.5,29.91,SW,230,1.0,1.0,70,0.00,,,0.00,Wunderground v.1.15,2013-07-07 22:21:00,
2013-07-07 17:26:00,82.2,71.4,29.91,SW,228,1.0,3.0,70,0.00,,,0.00,Wunderground v.1.15,2013-07-07 22:26:00,
2013-07-07 17:31:00,82.0,72.1,29.91,SW,228,2.0,2.0,72,0.00,,,0.00,Wunderground v.1.15,2013-07-07 22:31:00,
2013-07-07 17:37:00,81.9,71.2,29.90,SW,228,0.0,3.0,70,0.00,,,0.00,Wunderground v.1.15,2013-07-07 22:37:00,
2013-07-07 17:42:00,82.0,72.1,29.91,SW,228,0.0,1.0,72,0.00,,,0.00,Wunderground v.1.15,2013-07-07 22:42:00,
2013-07-07 17:47:00,82.1,71.8,29.91,SW,228,0.0,2.0,71,0.00,,,0.00,Wunderground v.1.15,2013-07-07 22:47:00,
2013-07-07 17:53:00,82.3,72.8,29.91,SW,228,1.0,3.0,73,0.00,,,0.00,Wunderground v.1.15,2013-07-07 22:53:00,
2013-07-07 17:58:00,82.3,72.4,29.91,SW,228,1.0,3.0,72,0.00,,,0.00,Wunderground v.1.15,2013-07-07 22:58:00,
2013-07-07 18:03:00,82.2,71.9,29.91,SW,228,1.0,3.0,71,0.00,,,0.00,Wunderground v.1.15,2013-07-07 23:03:00,
2013-07-07 18:08:00,82.1,72.2,29.91,SW,228,2.0,3.0,72,0.00,,,0.00,Wunderground v.1.15,2013-07-07 23:08:00,
2013-07-07 18:13:00,82.1,72.6,29.91,SW,228,0.0,2.0,73,0.00,,,0.00,Wunderground v.1.15,2013-07-07 23:13:00,
2013-07-07 18:18:00,82.0,72.5,29.91,SSW,196,2.0,3.0,73,0.00,,,0.00,Wunderground v.1.15,2013-07-07 23:18:00,
2013-07-07 18:23:00,81.9,72.4,29.91,South,191,1.0,3.0,73,0.00,,,0.00,Wunderground v.1.15,2013-07-07 23:23:00,
2013-07-07 18:28:00,81.7,72.2,29.91,SSW,206,1.0,3.0,73,0.00,,,0.00,Wunderground v.1.15,2013-07-07 23:28:00,
2013-07-07 18:33:00,81.5,72.0,29.90,SSW,207,3.0,3.0,73,0.00,,,0.00,Wunderground v.1.15,2013-07-07 23:33:00,
2013-07-07 18:38:00,81.4,72.3,29.91,SSW,207,0.0,3.0,74,0.00,,,0.00,Wunderground v.1.15,2013-07-07 23:38:00,
2013-07-07 18:43:00,81.5,72.4,29.91,SSW,204,0.0,2.0,74,0.00,,,0.00,Wunderground v.1.15,2013-07-07 23:43:00,
2013-07-07 18:48:00,81.5,72.4,29.91,SSW,204,1.0,3.0,74,0.00,,,0.00,Wunderground v.1.15,2013-07-07 23:48:00,
2013-07-07 18:53:00,81.4,71.9,29.91,SSW,207,1.0,3.0,73,0.00,,,0.00,Wunderground v.1.15,2013-07-07 23:53:00,
2013-07-07 18:58:00,81.3,71.8,29.91,SSW,212,2.0,3.0,73,0.00,,,0.00,Wunderground v.1.15,2013-07-07 23:58:00,
2013-07-07 19:04:00,81.1,71.6,29.90,SSW,212,3.0,3.0,73,0.00,,,0.00,Wunderground v.1.15,2013-07-08 00:04:00,
2013-07-07 19:09:00,80.9,71.8,29.90,SSW,212,1.0,3.0,74,0.00,,,0.00,Wunderground v.1.15,2013-07-08 00:09:00,
2013-07-07 19:14:00,80.7,71.6,29.91,SSW,212,1.0,3.0,74,0.00,,,0.00,Wunderground v.1.15,2013-07-08 00:14:00,
2013-07-07 19:20:00,80.5,71.4,29.91,SSW,213,1.0,3.0,74,0.00,,,0.00,Wunderground v.1.15,2013-07-08 00:20:00,
2013-07-07 19:25:00,80.4,71.7,29.91,SSW,213,1.0,2.0,75,0.00,,,0.00,Wunderground v.1.15,2013-07-08 00:25:00,
2013-07-07 19:30:00,80.2,71.6,29.91,SW,216,2.0,2.0,75,0.00,,,0.00,Wunderground v.1.15,2013-07-08 00:30:00,
2013-07-07 19:35:00,80.1,71.5,29.91,SW,227,2.0,5.0,75,0.00,,,0.00,Wunderground v.1.15,2013-07-08 00:35:00,
2013-07-07 19:41:00,80.1,71.5,29.90,SW,227,1.0,2.0,75,0.00,,,0.00,Wunderground v.1.15,2013-07-08 00:41:00,
2013-07-07 19:46:00,79.9,71.7,29.90,SW,227,0.0,2.0,76,0.00,,,0.00,Wunderground v.1.15,2013-07-08 00:46:00,
2013-07-07 19:52:00,79.6,71.8,29.91,SW,227,1.0,2.0,77,0.00,,,0.00,Wunderground v.1.15,2013-07-08 00:52:00,
2013-07-07 19:57:00,79.4,71.6,29.91,SW,227,1.0,2.0,77,0.00,,,0.00,Wunderground v.1.15,2013-07-08 00:57:00,
2013-07-07 20:02:00,79.2,71.4,29.91,SW,227,1.0,2.0,77,0.00,,,0.00,Wunderground v.1.15,2013-07-08 01:02:00,
2013-07-07 20:07:00,79.0,71.2,29.91,SW,227,2.0,3.0,77,0.00,,,0.00,Wunderground v.1.15,2013-07-08 01:07:00,
2013-07-07 20:12:00,78.9,71.1,29.91,SW,227,1.0,2.0,77,0.00,,,0.00,Wunderground v.1.15,2013-07-08 01:12:00,
2013-07-07 20:18:00,78.8,71.4,29.91,SW,227,1.0,2.0,78,0.00,,,0.00,Wunderground v.1.15,2013-07-08 01:18:00,
2013-07-07 20:23:00,78.6,71.2,29.91,SW,224,3.0,3.0,78,0.00,,,0.00,Wunderground v.1.15,2013-07-08 01:23:00,
2013-07-07 20:28:00,78.5,71.1,29.91,SW,223,0.0,3.0,78,0.00,,,0.00,Wunderground v.1.15,2013-07-08 01:28:00,
2013-07-07 20:33:00,78.3,70.9,29.91,SW,223,1.0,2.0,78,0.00,,,0.00,Wunderground v.1.15,2013-07-08 01:33:00,
2013-07-07 20:38:00,78.1,70.7,29.91,SW,223,2.0,3.0,78,0.00,,,0.00,Wunderground v.1.15,2013-07-08 01:38:00,
2013-07-07 20:43:00,78.0,70.6,29.91,SW,223,0.0,2.0,78,0.00,,,0.00,Wunderground v.1.15,2013-07-08 01:43:00,
2013-07-07 20:48:00,77.6,70.6,29.91,SW,223,0.0,2.0,79,0.00,,,0.00,Wunderground v.1.15,2013-07-08 01:48:00,
2013-07-07 20:53:00,77.3,70.3,29.91,SW,223,1.0,2.0,79,0.00,,,0.00,Wunderground v.1.15,2013-07-08 01:53:00,
2013-07-07 20:59:00,76.9,70.3,29.91,SW,223,1.0,2.0,80,0.00,,,0.00,Wunderground v.1.15,2013-07-08 01:59:00,
2013-07-07 21:05:00,76.5,69.9,29.91,SW,223,1.0,2.0,80,0.00,,,0.00,Wunderground v.1.15,2013-07-08 02:05:00,
2013-07-07 21:10:00,76.4,69.8,29.91,SW,223,0.0,0.0,80,0.00,,,0.00,Wunderground v.1.15,2013-07-08 02:10:00,
2013-07-07 21:16:00,76.3,70.0,29.92,SW,223,0.0,2.0,81,0.00,,,0.00,Wunderground v.1.15,2013-07-08 02:16:00,
2013-07-07 21:21:00,76.1,69.8,29.92,SW,223,0.0,0.0,81,0.00,,,0.00,Wunderground v.1.15,2013-07-08 02:21:00,
2013-07-07 21:27:00,76.0,69.7,29.92,SW,223,0.0,1.0,81,0.00,,,0.00,Wunderground v.1.15,2013-07-08 02:27:00,
2013-07-07 21:33:00,75.9,69.6,29.92,SW,223,0.0,1.0,81,0.00,,,0.00,Wunderground v.1.15,2013-07-08 02:33:00,
2013-07-07 21:38:00,75.7,69.8,29.92,SW,223,1.0,2.0,82,0.00,,,0.00,Wunderground v.1.15,2013-07-08 02:38:00,
2013-07-07 21:43:00,75.6,70.1,29.92,SW,223,1.0,2.0,83,0.00,,,0.00,Wunderground v.1.15,2013-07-08 02:43:00,
2013-07-07 21:48:00,75.6,70.1,29.92,SW,223,0.0,3.0,83,0.00,,,0.00,Wunderground v.1.15,2013-07-08 02:48:00,
2013-07-07 21:53:00,75.5,70.0,29.92,SW,223,1.0,2.0,83,0.00,,,0.00,Wunderground v.1.15,2013-07-08 02:53:00,
2013-07-07 21:58:00,75.5,70.3,29.92,SW,223,1.0,3.0,84,0.00,,,0.00,Wunderground v.1.15,2013-07-08 02:58:00,
2013-07-07 22:03:00,75.5,70.3,29.92,SW,223,1.0,3.0,84,0.00,,,0.00,Wunderground v.1.15,2013-07-08 03:03:00,
2013-07-07 22:08:00,75.6,70.4,29.92,SW,223,0.0,3.0,84,0.00,,,0.00,Wunderground v.1.15,2013-07-08 03:08:00,
2013-07-07 22:13:00,75.6,70.4,29.92,SW,223,0.0,2.0,84,0.00,,,0.00,Wunderground v.1.15,2013-07-08 03:13:00,
2013-07-07 22:18:00,75.7,70.5,29.92,SW,223,0.0,2.0,84,0.00,,,0.00,Wunderground v.1.15,2013-07-08 03:18:00,
2013-07-07 22:23:00,75.8,70.6,29.92,SW,223,0.0,2.0,84,0.00,,,0.00,Wunderground v.1.15,2013-07-08 03:23:00,
2013-07-07 22:29:00,75.8,70.6,29.93,SW,223,2.0,2.0,84,0.00,,,0.00,Wunderground v.1.15,2013-07-08 03:29:00,
2013-07-07 22:34:00,75.7,70.9,29.93,SW,223,3.0,3.0,85,0.00,,,0.00,Wunderground v.1.15,2013-07-08 03:34:00,
2013-07-07 22:40:00,75.8,71.0,29.93,SSW,200,1.0,4.0,85,0.00,,,0.00,Wunderground v.1.15,2013-07-08 03:40:00,
2013-07-07 22:45:00,75.8,71.0,29.92,SSW,200,1.0,3.0,85,0.00,,,0.00,Wunderground v.1.15,2013-07-08 03:45:00,
2013-07-07 22:51:00,75.8,71.0,29.92,SSW,197,2.0,2.0,85,0.00,,,0.00,Wunderground v.1.15,2013-07-08 03:51:00,
2013-07-07 22:56:00,75.8,71.0,29.92,SSW,197,2.0,3.0,85,0.00,,,0.00,Wunderground v.1.15,2013-07-08 03:56:00,
2013-07-07 23:02:00,75.9,71.1,29.92,SSW,197,1.0,2.0,85,0.00,,,0.00,Wunderground v.1.15,2013-07-08 04:02:00,
2013-07-07 23:07:00,76.0,70.8,29.93,SSW,193,0.0,3.0,84,0.00,,,0.00,Wunderground v.1.15,2013-07-08 04:07:00,
2013-07-07 23:13:00,75.9,70.7,29.93,SSW,194,1.0,2.0,84,0.00,,,0.00,Wunderground v.1.15,2013-07-08 04:13:00,
2013-07-07 23:18:00,75.9,70.7,29.93,SSW,194,2.0,3.0,84,0.00,,,0.00,Wunderground v.1.15,2013-07-08 04:18:00,
2013-07-07 23:23:00,76.0,70.8,29.93,SSW,194,1.0,2.0,84,0.00,,,0.00,Wunderground v.1.15,2013-07-08 04:23:00,
2013-07-07 23:28:00,75.9,70.7,29.94,SSW,194,1.0,3.0,84,0.00,,,0.00,Wunderground v.1.15,2013-07-08 04:28:00,
2013-07-07 23:33:00,76.0,70.8,29.94,SSW,194,2.0,2.0,84,0.00,,,0.00,Wunderground v.1.15,2013-07-08 04:33:00,
2013-07-07 23:38:00,75.9,70.7,29.94,SSW,194,1.0,3.0,84,0.00,,,0.00,Wunderground v.1.15,2013-07-08 04:38:00,
2013-07-07 23:43:00,75.8,70.6,29.93,SSW,194,1.0,4.0,84,0.00,,,0.00,Wunderground v.1.15,2013-07-08 04:43:00,
2013-07-07 23:48:00,75.8,70.6,29.94,SSW,194,1.0,4.0,84,0.00,,,0.00,Wunderground v.1.15,2013-07-08 04:48:00,
2013-07-07 23:54:00,75.9,70.7,29.94,SSW,194,1.0,3.0,84,0.00,,,0.00,Wunderground v.1.15,2013-07-08 04:54:00,
2013-07-07 23:59:00,75.9,70.7,29.94,SSW,194,0.0,3.0,84,0.00,,,0.00,Wunderground v.1.15,2013-07-08 04:59:00,